• In Hungary
  • List of Countries
  • For 7 days
  • Water Temperature
  • Satellite Maps
  • Weather Map
  • News
  • Weather Widgets
  • user-avatar
    Login

    Hourly Weather Asuan

    Today, 21 November, Tuesday

    Time Temperature Precipitation Wind Pressure Humidity
    00:00 +20°C° 0 mm 5 mps 745 mmHg 36%
    01:00 +19°C° 0 mm 5 mps 745 mmHg 38%
    02:00 +19°C° 0 mm 5 mps 744 mmHg 41%
    03:00 +17°C° 0 mm 5 mps 745 mmHg 43%
    04:00 +17°C° 0 mm 5 mps 745 mmHg 45%
    05:00 +17°C° 0 mm 5 mps 745 mmHg 48%
    06:00 +17°C° 0 mm 6 mps 745 mmHg 47%
    07:00 +19°C° 0 mm 6 mps 746 mmHg 47%
    08:00 +20°C° 0 mm 7 mps 746 mmHg 47%
    09:00 +21°C° 0 mm 7 mps 746 mmHg 42%
    10:00 +23°C° 0 mm 7 mps 746 mmHg 37%
    11:00 +24°C° 0 mm 7 mps 746 mmHg 33%
    12:00 +26°C° 0 mm 7 mps 745 mmHg 30%
    13:00 +26°C° 0 mm 7 mps 745 mmHg 27%
    14:00 +27°C° 0 mm 6 mps 744 mmHg 24%
    15:00 +26°C° 0 mm 6 mps 744 mmHg 26%
    16:00 +24°C° 0 mm 6 mps 744 mmHg 28%
    17:00 +25°C° 0 mm 5 mps 744 mmHg 30%
    18:00 +23°C° 0 mm 5 mps 744 mmHg 32%
    19:00 +22°C° 0 mm 5 mps 744 mmHg 34%
    20:00 +21°C° 0 mm 5 mps 745 mmHg 37%
    21:00 +20°C° 0 mm 5 mps 745 mmHg 38%
    22:00 +20°C° 0 mm 5 mps 745 mmHg 40%
    23:00 +19°C° 0 mm 5 mps 745 mmHg 42%

    Tomorrow, 22 November, Wednesday

    Time Temperature Precipitation Wind Pressure Humidity
    00:00 +19°C° 0 mm 5 mps 745 mmHg 43%
    01:00 +17°C° 0 mm 5 mps 745 mmHg 45%
    02:00 +17°C° 0 mm 5 mps 745 mmHg 46%
    03:00 +17°C° 0 mm 5 mps 745 mmHg 48%
    04:00 +16°C° 0 mm 5 mps 745 mmHg 50%
    05:00 +16°C° 0 mm 5 mps 745 mmHg 53%
    06:00 +17°C° 0 mm 5 mps 745 mmHg 52%
    07:00 +17°C° 0 mm 6 mps 746 mmHg 51%
    08:00 +18°C° 0 mm 7 mps 746 mmHg 50%
    09:00 +20°C° 0 mm 7 mps 746 mmHg 44%
    10:00 +22°C° 0 mm 7 mps 746 mmHg 39%
    11:00 +23°C° 0 mm 7 mps 746 mmHg 34%
    12:00 +23°C° 0 mm 7 mps 746 mmHg 31%
    13:00 +24°C° 0 mm 6 mps 745 mmHg 28%
    14:00 +26°C° 0 mm 6 mps 745 mmHg 25%
    15:00 +24°C° 0 mm 6 mps 745 mmHg 26%
    16:00 +23°C° 0 mm 6 mps 744 mmHg 27%
    17:00 +22°C° 0 mm 5 mps 744 mmHg 28%
    18:00 +21°C° 0 mm 5 mps 745 mmHg 30%
    19:00 +20°C° 0 mm 6 mps 745 mmHg 32%
    20:00 +19°C° 0 mm 6 mps 746 mmHg 34%
    21:00 +19°C° 0 mm 6 mps 746 mmHg 37%
    22:00 +17°C° 0 mm 6 mps 746 mmHg 41%
    23:00 +16°C° 0 mm 6 mps 746 mmHg 45%

    Day after tomorrow, 23 November, Thursday

    Time Temperature Precipitation Wind Pressure Humidity
    00:00 +16°C° 0 mm 6 mps 746 mmHg 47%
    01:00 +16°C° 0 mm 6 mps 746 mmHg 49%
    02:00 +15°C° 0 mm 6 mps 746 mmHg 51%
    03:00 +15°C° 0 mm 6 mps 746 mmHg 52%
    04:00 +15°C° 0 mm 6 mps 746 mmHg 54%
    05:00 +14°C° 0 mm 6 mps 746 mmHg 55%
    06:00 +15°C° 0 mm 6 mps 746 mmHg 53%
    07:00 +16°C° 0 mm 6 mps 746 mmHg 51%
    08:00 +16°C° 0 mm 7 mps 747 mmHg 49%
    09:00 +19°C° 0 mm 6 mps 747 mmHg 43%
    10:00 +20°C° 0 mm 6 mps 747 mmHg 38%
    11:00 +22°C° 0 mm 5 mps 747 mmHg 32%
    12:00 +23°C° 0 mm 5 mps 746 mmHg 29%
    13:00 +25°C° 0 mm 5 mps 745 mmHg 26%
    14:00 +25°C° 0 mm 5 mps 744 mmHg 23%
    15:00 +25°C° 0 mm 5 mps 744 mmHg 24%
    16:00 +23°C° 0 mm 5 mps 744 mmHg 25%
    17:00 +22°C° 0 mm 4 mps 744 mmHg 26%
    18:00 +21°C° 0 mm 4 mps 745 mmHg 28%
    19:00 +20°C° 0 mm 5 mps 745 mmHg 30%
    20:00 +19°C° 0 mm 5 mps 746 mmHg 32%
    21:00 +19°C° 0 mm 5 mps 746 mmHg 34%
    22:00 +17°C° 0 mm 5 mps 746 mmHg 37%
    23:00 +17°C° 0 mm 6 mps 746 mmHg 39%

    24 November, Friday

    Time Temperature Precipitation Wind Pressure Humidity
    00:00 +16°C° 0 mm 5 mps 746 mmHg 42%
    01:00 +16°C° 0 mm 5 mps 745 mmHg 45%
    02:00 +15°C° 0 mm 5 mps 745 mmHg 47%
    03:00 +15°C° 0 mm 5 mps 745 mmHg 49%
    04:00 +15°C° 0 mm 4 mps 745 mmHg 50%
    05:00 +14°C° 0 mm 4 mps 745 mmHg 52%
    06:00 +15°C° 0 mm 4 mps 746 mmHg 49%
    07:00 +16°C° 0 mm 5 mps 746 mmHg 47%
    08:00 +17°C° 0 mm 5 mps 747 mmHg 44%
    09:00 +19°C° 0 mm 5 mps 746 mmHg 39%
    10:00 +21°C° 0 mm 5 mps 746 mmHg 34%
    11:00 +22°C° 0 mm 4 mps 746 mmHg 29%
    12:00 +23°C° 0 mm 4 mps 745 mmHg 27%
    13:00 +23°C° 0 mm 4 mps 745 mmHg 25%
    14:00 +25°C° 0 mm 3 mps 744 mmHg 22%
    15:00 +24°C° 0 mm 3 mps 744 mmHg 24%
    16:00 +24°C° 0 mm 3 mps 744 mmHg 25%
    17:00 +22°C° 0 mm 3 mps 744 mmHg 26%
    18:00 +21°C° 0 mm 3 mps 744 mmHg 28%
    19:00 +21°C° 0 mm 3 mps 745 mmHg 30%
    20:00 +20°C° 0 mm 4 mps 745 mmHg 32%
    21:00 +20°C° 0 mm 4 mps 745 mmHg 33%
    22:00 +19°C° 0 mm 4 mps 745 mmHg 33%
    23:00 +19°C° 0 mm 4 mps 745 mmHg 34%

    25 November, Saturday

    Time Temperature Precipitation Wind Pressure Humidity
    00:00 +19°C° 0 mm 3 mps 745 mmHg 37%
    01:00 +18°C° 0 mm 3 mps 745 mmHg 40%
    02:00 +18°C° 0 mm 3 mps 745 mmHg 43%
    03:00 +18°C° 0 mm 3 mps 745 mmHg 46%
    04:00 +17°C° 0 mm 3 mps 745 mmHg 48%
    05:00 +17°C° 0 mm 3 mps 745 mmHg 51%
    06:00 +18°C° 0 mm 3 mps 745 mmHg 48%
    07:00 +19°C° 0 mm 3 mps 745 mmHg 46%
    08:00 +20°C° 0 mm 3 mps 746 mmHg 43%
    09:00 +21°C° 0 mm 3 mps 746 mmHg 38%
    10:00 +22°C° 0 mm 3 mps 746 mmHg 33%
    11:00 +25°C° 0 mm 2 mps 745 mmHg 29%
    12:00 +25°C° 0 mm 2 mps 745 mmHg 26%
    13:00 +26°C° 0 mm 2 mps 744 mmHg 24%
    14:00 +27°C° 0 mm 3 mps 744 mmHg 22%
    15:00 +26°C° 0 mm 3 mps 744 mmHg 23%
    16:00 +25°C° 0 mm 3 mps 744 mmHg 24%
    17:00 +25°C° 0 mm 3 mps 744 mmHg 24%
    18:00 +24°C° 0 mm 3 mps 744 mmHg 26%
    19:00 +22°C° 0 mm 3 mps 745 mmHg 27%
    20:00 +21°C° 0 mm 3 mps 745 mmHg 28%
    21:00 +21°C° 0 mm 3 mps 745 mmHg 29%
    22:00 +20°C° 0 mm 3 mps 745 mmHg 30%
    23:00 +20°C° 0 mm 4 mps 746 mmHg 31%

    26 November, Sunday

    Time Temperature Precipitation Wind Pressure Humidity
    00:00 +19°C° 0 mm 4 mps 745 mmHg 33%
    01:00 +19°C° 0 mm 4 mps 745 mmHg 35%
    02:00 +18°C° 0 mm 4 mps 745 mmHg 38%
    03:00 +18°C° 0 mm 4 mps 745 mmHg 40%
    04:00 +18°C° 0 mm 4 mps 745 mmHg 42%
    05:00 +17°C° 0 mm 4 mps 746 mmHg 44%
    06:00 +18°C° 0 mm 4 mps 746 mmHg 43%
    07:00 +19°C° 0 mm 4 mps 746 mmHg 42%
    08:00 +19°C° 0 mm 4 mps 747 mmHg 40%
    09:00 +21°C° 0 mm 4 mps 747 mmHg 36%
    10:00 +22°C° 0 mm 4 mps 747 mmHg 31%
    11:00 +25°C° 0 mm 4 mps 747 mmHg 27%
    12:00 +26°C° 0 mm 4 mps 746 mmHg 25%
    13:00 +27°C° 0 mm 5 mps 746 mmHg 23%
    14:00 +27°C° 0 mm 5 mps 745 mmHg 21%
    15:00 +26°C° 0 mm 5 mps 745 mmHg 24%
    16:00 +26°C° 0 mm 5 mps 746 mmHg 26%
    17:00 +25°C° 0 mm 5 mps 746 mmHg 29%
    18:00 +23°C° 0 mm 5 mps 746 mmHg 33%
    19:00 +22°C° 0 mm 5 mps 747 mmHg 37%
    20:00 +21°C° 0 mm 5 mps 747 mmHg 42%
    21:00 +20°C° 0 mm 5 mps 747 mmHg 44%
    22:00 +19°C° 0 mm 5 mps 747 mmHg 47%
    23:00 +19°C° 0 mm 6 mps 747 mmHg 50%
    Show more